Tracking 28790 objects as of 18-Apr-2024
HD Live streaming from Space Station
objects crossing your sky now

SL-14 R/B

Track SL-14 R/B now!
10-day predictions


NORAD ID: 27061
Int'l Code: 2001-058G
Perigee: 1,420.3 km
Apogee: 1,490.1 km
Inclination: 82.5 °
Period: 114.8 minutes
Semi major axis: 7826 km
RCS: 6.0466 m2 (large)
Launch date: December 28, 2001
Source: Commonwealth of Independent States (former USSR) (CIS)
Launch site: PLESETSK MISSILE AND SPACE COMPLEX (PKMTR)

Note: This is a ROCKET BODY
Your satellite tracking list
Your tracking list is empty




NASA's NSSDC Master Catalog

Two Line Element Set (TLE):
1 27061U 01058G   24108.96382406  .00000021  00000-0  63699-4 0  9993
2 27061  82.5425  73.0796 0044586  75.9331 352.5223 12.53944901 21037
Source of the keplerian elements: AFSPC